Hourly Data Report for October 17, 2016

All times are specified in Local Standard Time (LST). Add 1 hour to adjust for Daylight Saving Time where and when it is observed.

RANKIN INLET A
NUNAVUT

62°48'38.000" N
92°06'53.000" W
32.30 m
2303405
71083
YRT

Download Data

Hourly Data (October 2016)
Hourly Data Report for October 17, 2016
Temp Definition
°C
Dew Point Temp Definition
°C
Rel Hum Definition
%
Wind Dir Definition
10's deg

Wind Spd Definition
km/h
Visibility Definition
km
Stn Press Definition
kPa
Hmdx Definition


Wind Chill Definition


Weather Definition


TIME
00:00 Legend Double Dagger -8.9 -10.1 91 32 13 16.1 101.68   -15 Snow
01:00 Legend Double Dagger -9.0 -10.2 91 35 7 24.1 101.68   -13 LegendNANA
02:00 Legend Double Dagger -8.6 -9.8 91 1 7 24.1 101.65   -12 LegendNANA
03:00 Legend Double Dagger -8.3 -9.5 91 4 7 24.1 101.62   -12 Cloudy
04:00 Legend Double Dagger -6.7 -8.5 87 10 8 24.1 101.63   -11 LegendNANA
05:00 Legend Double Dagger -5.7 -7.8 85 8 12 24.1 101.59   -11 Snow
06:00 Legend Double Dagger -5.0 -6.8 87 8 15 24.1 101.59   -11 Snow
07:00 Legend Double Dagger -4.8 -6.9 85 7 14 24.1 101.56   -10 Snow
08:00 Legend Double Dagger -4.3 -6.0 88 9 18 24.1 101.57   -10 Snow
09:00 Legend Double Dagger -4.5 -7.4 80 8 22 80.5 101.59   -11 Cloudy
10:00 Legend Double Dagger -3.5 -5.8 84 8 16 6.4 101.59   -9 Snow
11:00 Legend Double Dagger -1.4 -3.1 88 10 20 16.1 101.58   -7 Snow
12:00 Legend Double Dagger -0.8 -1.7 94 10 22 4.8 101.57   -7 Snow,Blowing Snow
13:00 Legend Double Dagger 0.7 -2.0 82 16 11 24.1 101.53     LegendNANA
14:00 Legend Double Dagger 0.9 -2.9 76 16 17 24.1 101.52     Snow
15:00 Legend Double Dagger 0.8 -3.1 75 15 15 24.1 101.54     Mostly Cloudy
16:00 Legend Double Dagger -0.5 -2.1 89 8 16 24.1 101.54   -5 LegendNANA
17:00 Legend Double Dagger -0.3 -2.1 88 8 16 24.1 101.56   -5 LegendNANA
18:00 Legend Double Dagger 0.2 -1.4 89 15 20 16.1 101.59     Snow
19:00 Legend Double Dagger 0.6 -3.0 77 12 21 16.1 101.59     Snow
20:00 Legend Double Dagger 1.0 -3.1 74 12 23 16.1 101.58     Snow
21:00 Legend Double Dagger 0.9 -3.4 73 12 23 24.1 101.56     Cloudy
22:00 Legend Double Dagger 0.8 -1.9 82 13 26 24.1 101.55     Snow
23:00 Legend Double Dagger 1.0 -3.3 73 11 25 24.1 101.52     LegendNANA

Notes on Data Quality.

Legend

  • E = Estimated
  • M = Missing
  • NA = Not Available
  • ‡ = Partner data that is not subject to review by the National Climate Archives
Date modified: